Location: Unspecified
(0.0000°N, 0.0000°E)
Time: 21:16:22
(UTC+00:00)

Daily predictions for brighter satellites

Satellite Brightness Start Highest point End
(mag) Time Altitude Azimuth Time Altitude Azimuth Time Altitude Azimuth
Cosmos 1538 Rocket 4.1 18:22:53 10° S 18:27:54 53° ESE 18:32:55 10° NNE
Meteor 2-4 Rocket 4.0 18:24:01 10° S 18:29:42 80° W 18:35:32 10° N
BLOCK DM-SL R/B 2.4 18:27:49 10° WNW 18:30:18 60° N 18:38:37 10° E
USA 238 DEB 3.5 18:24:40 10° SSW 18:30:34 82° WNW 18:36:27 10° NNE
USA 238 3.4 18:24:54 10° SSW 18:30:47 84° WNW 18:36:41 10° NNE
Palapa 6 Rocket 4.3 18:33:05 10° SSW 18:35:39 17° SSE 18:38:04 10° ESE
SPOT 1/Viking Rocket 4.3 18:32:09 10° S 18:37:09 56° WSW 18:42:07 10° NNW
SL-14 R/B 3.7 18:34:29 10° SSE 18:37:56 35° E 18:41:20 10° NNE
Cosmos 1975 3.2 18:35:01 10° NNW 18:38:30 58° W 18:42:01 10° S
ARIANE 5 R/B 2.5 18:35:29 10° SSE 18:40:39 81° ENE 18:45:44 10° N
Resurs 01 Rocket 2.6 18:37:23 10° SE 18:41:06 27° ENE 18:44:48 10° NNE
SJ-12 3.6 18:37:32 10° SSE 18:41:18 85° E 18:45:02 10° N
FALCON 9 R/B 4.5 18:37:53 10° N 18:42:46 21° NE 18:53:42 10° E
In-Cosmos 22 4.4 18:38:47 10° S 18:44:20 50° E 18:49:52 10° NNE
USA 59 Rocket 2.4 18:45:38 10° SW 18:51:49 37° WNW 18:56:20 10° N
ATLAS 2AS CENTAUR R/B 2.8 18:48:17 10° NNW 18:55:10 85° WSW 19:02:16 10° SSE
Delta 128 3.9 19:00:07 10° NW 19:04:52 55° NNE 19:07:27 23° E
MAQSAT/ARIANE V 2.4 18:55:37 10° W 19:05:38 67° N 19:07:20 23° E
CARTOSAT-1 3.5 19:01:37 10° S 19:05:48 80° WSW 19:09:58 10° NNW
ARIANE 5 DEB (SYLDA) 3.2 19:03:08 10° WNW 19:05:54 38° N 19:09:00 13° ENE
Cosmos 1943 Rocket 2.1 19:08:02 10° SSW 19:13:43 85° ESE 19:19:21 10° NNE
Hubble Space Telescope 0.9 19:11:57 10° NW 19:15:34 50° NNE 19:16:43 35° E
CZ-4C R/B 3.4 19:11:13 10° NNW 19:20:16 90° WSW 19:28:22 15° SSE
SPOT 5 4.1 19:21:19 24° ENE 19:21:19 24° ENE 19:25:16 10° NNE
CZ-2D R/B 3.2 19:21:49 31° SSE 19:23:41 74° E 19:27:45 10° N
OAO 3 Rocket 4.2 19:19:42 10° NNW 19:23:42 29° NE 19:24:49 26° ENE
Ariane H10+ 1.6 19:22:44 10° W 19:24:51 45° N 19:25:03 43° NNE
Radarsat Rocket 4.3 19:22:03 10° SSE 19:29:29 86° WSW 19:35:58 10° NNW
Cosmos 1680 Rocket 3.4 19:24:25 10° S 19:29:32 62° ESE 19:34:37 10° NNE
Centaur AC-72 4.4 19:25:45 10° SW 19:29:34 16° S 19:30:48 15° SSE
Cosmos 2278 Rocket 2.1 19:24:26 10° SSW 19:30:07 87° ESE 19:35:46 10° NNE
ARIANE 3 DEB 2.5 19:27:49 10° WNW 19:29:56 49° WNW 19:29:56 49° WNW
Ariane H10+ 3.8 19:20:12 10° W 19:33:31 61° S 19:38:12 33° ESE
Cosmos 2266 Rocket 4.0 19:27:17 10° N 19:33:42 86° W 19:39:56 11° S
Cosmos 1603 3.8 19:28:19 10° N 19:33:45 51° ENE 19:35:00 43° ESE
Cosmos 1461 2.4 19:32:43 10° NNW 19:36:00 70° WSW 19:36:00 70° WSW
Spot 4 Rocket 3.9 19:34:28 26° S 19:37:24 86° W 19:42:29 10° NNW
HETE-2 4.3 19:35:11 10° W 19:38:50 72° SW 19:38:50 72° SW
Delta 2 Rocket 3.8 19:38:46 10° WSW 19:45:37 89° NNW 19:48:18 36° ENE
H-10 deb 2.5 19:43:28 10° W 19:45:16 37° W 19:45:16 37° W
Cosmos 1553 Rocket 3.9 19:40:25 10° S 19:46:50 80° E 19:53:09 10° N
OceanSat 1 rocket 4.5 19:50:01 75° SE 19:50:19 79° E 19:55:11 10° N
Ariane 44LP R/B 3.7 19:45:49 10° W 19:52:08 68° N 19:52:23 66° NNE
Meteor 1-13 Rocket 4.4 19:56:28 55° ENE 19:56:28 55° ENE 20:01:35 10° NNE
USA 267 4.4 19:59:02 25° NE 19:59:02 25° NE 20:03:59 10° N
GPS 2-15 Rocket1 3.8 19:55:06 10° WSW 19:58:18 45° SW 19:58:18 45° SW
Cosmos 1655 Rocket 3.9 19:56:29 10° N 20:02:50 74° E 20:03:18 70° ESE
ATLAS 5 CENTAUR R/B 2.7 20:00:23 10° W 20:04:22 24° SW 20:04:22 24° SW
CZ-3A R/B 3.2 20:03:39 10° WSW 20:07:38 76° SSE 20:27:29 10° ENE
ATLAS 5 CENTAUR R/B 3.7 20:11:49 10° WSW 20:13:27 17° W 20:13:27 17° W
Resurs 01 Rocket 4.4 20:15:18 10° SW 20:17:10 12° WSW 20:19:01 10° WNW
Chandra Rocket (1) 4.3 19:56:27 10° WNW 20:31:54 72° SW 20:34:09 60° SSE
Atlas 2A Centaur Rocket 4.2 20:00:56 10° WSW 20:44:00 75° NW 20:46:04 58° NNE
SL-12 R/B(2) 4.5 20:49:27 10° SW 20:56:46 52° NW 21:03:41 10° N
